Weather in Novaya Mel'nitsa

Russia / Novgorod Oblast     58°31′25″N   31°11′39″E
temp.,
°C
wind,
m/s
gust,
m/s
humid.,
%
clouds,
%
prec.,
mm/h
press.,
hPa
HPBL,
m
17 may, mon
mon1700:00+12ene11925 0.0 101211
03:00+11ese22956 0.0 101237
06:00+12ese269488 0.0 1012138
09:00+16ese3576100 0.0 1012323
12:00+21se5856100 0.0 10111226
15:00+23ese4949100 0.0 10091827
18:00+21e41061100 0.0 1007443
21:00+18ese51580100 1.4 1005611
18 may, tue
tue1800:00+16ese51592100 1.1 1005527
03:00+16se4129458 1.5 1004403
06:00+16ese31195100 0.0 1004376
09:00+18se498361 0.0 1004545
12:00+23sse3765100 0.2 10041047
15:00+24s3657100 1.8 10041034
18:00+24sse3863100 1.1 1002970
21:00+17ne1195100 4.2 100316
19 may, wed
wed1900:00+16ene249688 3.0 100396
03:00+15ese4139592 3.9 1002362
06:00+15se5129578 0.1 1002540
09:00+18sse5118498 0.4 1003632
12:00+21sse6116186 0.3 10031404
15:00+22ssw5957100 0.4 10031137
18:00+19ssw497999 1.9 1003563
21:00+15s3893100 3.1 1005164
20 may, thu
thu2000:00+13sw23973 0.0 100552
03:00+12w2598100 0.0 1006158
06:00+12wnw2495100 0.0 1008159
09:00+14nw3488100 0.0 1007447
12:00+15n4579100 0.0 1007665
15:00+15n4883100 0.3 1006625
18:00+12nnw81494100 9.1 1004526
21:00+11n61496100 12.4 1004634
21 may, fri
fri2100:00+10n71593100 2.4 1002571
03:00+10nne61295100 4.8 1000486
06:00+10nne3698100 0.4 999271
09:00+11nnw2297100 0.5 999209
12:00+14w2289100 0.1 998481
15:00+12wnw5691100 0.2 999520
18:00+9w51093100 0.3 1000679
21:00+8w61193100 1.4 1002902